[[{"header":{"parameterUnit":"m.s-1","parameterCategory":2,"la1":30.2991,"la2":30.254,"lo1":-89.0895,"lo2":-89.0444,"dy":0.0017,"dx":0.0017,"nx":28,"ny":28,"refTime":"2024-06-19T21:00:00:Z","depth":"0","parameterNumber":2,"parameterNumberName":"U-component_of_CURRENTS"},"data":[0,0,0,0,0,0,0,0,0,0,0,0,0,0,0,0,0,0,0,0,0,0,0,0,0,0,0,0,0,0,0,0,0,0,0,0,0,0,0,0,0,0,0,0,0,0,0,0,0,0,0,0,0,0,0,0,0,0,-0.176,-0.176,0,-0.1746,-0.1745,-0.1745,-0.1707,-0.1707,-0.1706,-0.1706,-0.1625,-0.1624,-0.1622,0,0,0,0,0,0,0,0,0,0,0,0,0,-0.1706,-0.1707,-0.176,-0.176,-0.1761,-0.1746,-0.1745,-0.1745,-0.1707,-0.1707,-0.1706,-0.1706,-0.1626,-0.1624,-0.1622,0,0,0,0,0,0,0,0,0,0,0,0,0,-0.171,-0.1707,-0.176,-0.1744,-0.1742,-0.1746,-0.1745,-0.1744,-0.1707,-0.1707,-0.1706,-0.1705,-0.1627,-0.1624,-0.1621,-0.1617,0,0,-0.1613,-0.1612,0,0,0,0,0,0,0,0,-0.171,-0.1711,-0.1746,-0.1745,-0.1743,-0.1732,-0.1697,-0.17,-0.1707,-0.1716,-0.1706,-0.1705,-0.1658,-0.1653,-0.1646,-0.1613,-0.1609,-0.1613,-0.1611,-0.161,-0.161,0,0,0,0,0,0,0,-0.171,-0.1712,-0.175,-0.1746,-0.1745,-0.172,-0.172,-0.1697,-0.1686,-0.1715,-0.1713,-0.1719,-0.1656,-0.1649,-0.1644,-0.1608,-0.1613,-0.1611,-0.1609,-0.1608,-0.1564,-0.1564,0,0,0,0,0,0,-0.1724,-0.1712,-0.175,-0.175,-0.173,-0.1722,-0.1722,-0.1732,-0.1687,-0.1682,-0.172,-0.1718,-0.1653,-0.1647,-0.1641,-0.1638,-0.161,-0.1608,-0.1606,-0.1563,-0.1564,-0.1564,0,0,0,0,0,0,-0.1723,-0.1728,-0.1751,-0.1733,-0.1735,-0.1725,-0.1736,-0.1732,-0.1726,-0.1692,-0.1684,-0.1717,-0.1653,-0.1644,-0.1624,-0.1634,-0.1607,-0.1604,-0.1563,-0.1564,-0.1564,-0.1628,0,0,0,0,0,0,-0.1722,-0.1728,-0.1733,-0.1735,-0.1737,-0.176,-0.1737,-0.1733,-0.1732,-0.1729,-0.1688,-0.168,-0.1652,-0.1628,-0.1621,-0.163,-0.1602,-0.1562,-0.1563,-0.1564,-0.1625,-0.163,-0.1635,0,0,0,0,0,-0.172,-0.1732,-0.1733,-0.1738,-0.1747,-0.1761,-0.1759,-0.1745,-0.1733,-0.1735,-0.1706,-0.1681,-0.1628,-0.1626,-0.1618,-0.1626,-0.1562,-0.1563,-0.1564,-0.1623,-0.1629,-0.1635,0,0,0,0,0,0,-0.1708,-0.173,-0.1731,-0.1749,-0.1759,-0.1756,-0.1756,-0.1751,-0.173,-0.1721,-0.1686,-0.1676,-0.1662,-0.1636,-0.1635,-0.1616,-0.1591,-0.1591,-0.1639,-0.1644,-0.1649,-0.1646,-0.16,0,0,0,0,0,-0.1712,-0.1726,-0.1744,-0.1757,-0.1764,-0.1761,-0.1762,-0.1758,-0.1746,-0.1736,-0.1711,-0.1681,-0.166,-0.1646,-0.1622,-0.1611,-0.1589,-0.1611,-0.1616,-0.162,-0.1612,-0.1592,-0.1594,-0.1568,-0.1568,-0.1568,0,0,-0.1711,-0.1725,-0.1733,-0.1755,-0.1757,-0.1773,-0.1759,-0.1767,-0.1773,-0.173,-0.1721,-0.1697,-0.1662,-0.1651,-0.1642,-0.1629,-0.1621,-0.1622,-0.1626,-0.1614,-0.1593,-0.1595,-0.1598,-0.1568,-0.1568,-0.1568,0,0,-0.1721,-0.1731,-0.1748,-0.1761,-0.1777,-0.1778,-0.1785,-0.1789,-0.1782,-0.1779,-0.1749,-0.1732,-0.1701,-0.1679,-0.1663,-0.168,-0.1649,-0.1676,-0.1696,-0.1677,-0.1679,-0.1681,-0.1677,-0.1678,-0.1677,-0.1678,-0.1678,0,-0.1719,-0.1742,-0.1753,-0.1775,-0.1783,-0.1785,-0.1802,-0.1802,-0.1797,-0.179,-0.1782,-0.1739,-0.1713,-0.1695,-0.1702,-0.1691,-0.1679,-0.1679,-0.1684,-0.1685,-0.1685,-0.1681,-0.1681,-0.1681,-0.168,-0.168,-0.168,0,-0.1742,-0.1761,-0.1772,-0.1799,-0.1811,-0.1824,-0.1836,-0.184,-0.1834,-0.1828,-0.1813,-0.1782,-0.1751,-0.1751,-0.173,-0.1722,-0.1715,-0.1696,-0.1671,-0.1692,-0.1686,-0.1685,-0.1685,-0.1684,-0.1683,-0.1682,0,0,-0.1733,-0.178,-0.178,-0.1797,-0.1822,-0.1834,-0.185,-0.186,-0.1864,-0.1855,-0.1851,-0.1823,-0.1801,-0.1781,-0.1758,-0.1746,-0.1749,-0.1725,-0.1723,-0.1726,-0.1721,-0.1733,-0.1732,-0.1734,-0.1733,-0.1733,-0.1724,0,-0.1743,-0.1783,-0.1801,-0.1831,-0.1851,-0.1863,-0.1879,-0.1886,-0.1884,-0.1883,-0.1855,-0.1839,-0.1815,-0.1802,-0.1787,-0.1752,-0.1744,-0.1754,-0.1695,-0.1694,-0.1705,-0.173,-0.1759,-0.1754,-0.1722,-0.1722,-0.1722,0,-0.1752,-0.1777,-0.181,-0.1849,-0.1857,-0.1874,-0.1889,-0.1903,-0.1906,-0.1905,-0.1886,-0.1864,-0.1838,-0.1819,-0.1771,-0.1779,-0.1753,-0.1732,-0.1731,-0.1713,-0.1703,-0.1723,-0.1752,-0.1772,-0.1719,-0.1719,-0.172,0,-0.1731,-0.1779,-0.1801,-0.1815,-0.1862,-0.1871,-0.1886,-0.19,-0.1906,-0.1908,-0.1909,-0.1879,-0.1854,-0.1821,-0.1775,-0.1771,-0.1732,-0.1718,-0.1708,-0.1709,-0.1704,-0.1706,-0.1745,-0.1688,-0.1688,-0.1688,-0.1688,0,-0.173,-0.1745,-0.1793,-0.1805,-0.1825,-0.186,-0.1875,-0.1889,-0.1906,-0.1913,-0.1906,-0.19,-0.1851,-0.1823,-0.1788,-0.1747,-0.1737,-0.1714,-0.1705,-0.173,-0.1734,-0.1726,-0.1712,-0.1687,-0.1687,-0.1687,-0.1687,0,-0.1697,-0.1736,-0.176,-0.1805,-0.1817,-0.1823,-0.1862,-0.1874,-0.1898,-0.1907,-0.1906,-0.19,-0.1868,-0.1831,-0.1777,-0.1756,-0.1716,-0.1709,-0.1752,-0.1749,-0.1761,-0.1748,-0.1687,-0.1676,-0.17,-0.17,-0.17,0,-0.1684,-0.1694,-0.1737,-0.1747,-0.1763,-0.1788,-0.1807,-0.1852,-0.1869,-0.1906,-0.1905,-0.1889,-0.1877,-0.1822,-0.1791,-0.175,-0.1715,-0.1747,-0.1739,-0.1772,-0.1751,-0.1699,-0.169,-0.1767,-0.1768,-0.1768,-0.1769,0,-0.1636,-0.1649,-0.1662,-0.1689,-0.171,-0.174,-0.1771,-0.1788,-0.1846,-0.1871,-0.1895,-0.1895,-0.1876,-0.186,-0.1817,-0.1781,-0.1747,-0.1757,-0.1774,-0.1794,-0.1754,-0.1736,-0.1773,-0.1774,-0.1774,-0.1773,-0.1773,-0.1773,-0.1574,-0.1569,-0.1588,-0.1604,-0.1634,-0.1662,-0.1652,-0.172,-0.1749,-0.1779,-0.1853,-0.1874,-0.193,-0.1879,-0.185,-0.1842,-0.1769,-0.1824,-0.1803,-0.1746,-0.1741,-0.18,-0.1799,-0.1799,-0.1799,-0.1798,-0.1798,0,-0.1485,-0.1487,-0.1502,-0.1514,-0.1508,-0.1562,-0.1598,-0.1574,-0.1588,-0.1714,-0.1756,-0.1898,-0.1925,-0.1948,-0.1964,-0.1919,-0.1863,-0.1878,-0.1828,-0.1814,-0.1866,-0.188,-0.1919,-0.1919,-0.1919,-0.1919,-0.1919,-0.1919,-0.1435,-0.141,-0.1423,-0.1375,-0.1382,-0.1339,-0.1335,-0.1335,-0.1392,-0.148,-0.1617,-0.1721,-0.1788,-0.202,-0.203,-0.1974,-0.1911,-0.1863,-0.1827,-0.1904,-0.1898,-0.1892,-0.1905,-0.1948,-0.1947,-0.1781,-0.178,-0.1779]},{"header":{"parameterUnit":"m.s-1","parameterCategory":2,"la1":30.2991,"la2":30.254,"lo1":-89.0895,"lo2":-89.0444,"dy":0.0017,"dx":0.0017,"nx":28,"ny":28,"refTime":"2024-06-19T21:00:00:Z","depth":"0","parameterNumber":3,"parameterNumberName":"V-component_of_CURRENTS"},"data":[0,0,0,0,0,0,0,0,0,0,0,0,0,0,0,0,0,0,0,0,0,0,0,0,0,0,0,0,0,0,0,0,0,0,0,0,0,0,0,0,0,0,0,0,0,0,0,0,0,0,0,0,0,0,0,0,0,0,-0.0302,-0.0301,0,-0.0228,-0.0227,-0.0227,-0.0195,-0.0195,-0.0195,-0.0194,-0.0145,-0.0144,-0.0142,0,0,0,0,0,0,0,0,0,0,0,0,0,-0.0407,-0.0405,-0.0302,-0.0301,-0.0299,-0.0228,-0.0227,-0.0226,-0.0195,-0.0195,-0.0195,-0.0194,-0.0145,-0.0144,-0.0142,0,0,0,0,0,0,0,0,0,0,0,0,0,-0.0352,-0.0405,-0.0302,-0.0274,-0.027,-0.0228,-0.0227,-0.0226,-0.0195,-0.0195,-0.0195,-0.0194,-0.0146,-0.0144,-0.0142,-0.0132,0,0,-0.0136,-0.0135,0,0,0,0,0,0,0,0,-0.0355,-0.0348,-0.0279,-0.0275,-0.0272,-0.0219,-0.0246,-0.0195,-0.0195,-0.0225,-0.0194,-0.0194,-0.0171,-0.0167,-0.0155,-0.013,-0.0127,-0.0136,-0.0135,-0.0134,-0.0134,0,0,0,0,0,0,0,-0.0359,-0.0351,-0.0274,-0.0278,-0.0273,-0.0262,-0.0254,-0.0236,-0.0201,-0.0223,-0.022,-0.0209,-0.0169,-0.0157,-0.0154,-0.0127,-0.0136,-0.0134,-0.0133,-0.0133,-0.0081,-0.0081,0,0,0,0,0,0,-0.0364,-0.0355,-0.0277,-0.0272,-0.0312,-0.026,-0.0252,-0.0237,-0.0201,-0.0194,-0.0209,-0.0207,-0.0161,-0.0156,-0.0152,-0.0131,-0.0134,-0.0132,-0.0131,-0.0081,-0.0081,-0.0081,0,0,0,0,0,0,-0.0367,-0.0358,-0.028,-0.0311,-0.03,-0.0258,-0.0242,-0.0236,-0.0223,-0.019,-0.0184,-0.0202,-0.016,-0.0155,-0.0131,-0.0129,-0.0131,-0.013,-0.0081,-0.0081,-0.0081,-0.0093,0,0,0,0,0,0,-0.037,-0.0359,-0.0358,-0.0311,-0.0298,-0.0258,-0.0242,-0.0234,-0.0215,-0.0213,-0.0182,-0.0177,-0.016,-0.0134,-0.0129,-0.0126,-0.0128,-0.0082,-0.0081,-0.0081,-0.0092,-0.0093,-0.0093,0,0,0,0,0,-0.0374,-0.0374,-0.0358,-0.0349,-0.0294,-0.0257,-0.025,-0.0222,-0.0215,-0.021,-0.0185,-0.0178,-0.0128,-0.0132,-0.0126,-0.0123,-0.0082,-0.0081,-0.0081,-0.0092,-0.0093,-0.0093,0,0,0,0,0,0,-0.0424,-0.0369,-0.0351,-0.0335,-0.0299,-0.0252,-0.0247,-0.0224,-0.02,-0.0201,-0.0172,-0.0165,-0.0145,-0.0132,-0.0137,-0.0107,-0.0105,-0.0104,-0.0116,-0.0116,-0.0116,-0.012,-0.0127,0,0,0,0,0,-0.0432,-0.0415,-0.0361,-0.0351,-0.0334,-0.0291,-0.0275,-0.0252,-0.0221,-0.021,-0.0184,-0.016,-0.0139,-0.0126,-0.0107,-0.0088,-0.0069,-0.0084,-0.0084,-0.0084,-0.0083,-0.0051,-0.0048,-0.0079,-0.0079,-0.0079,0,0,-0.045,-0.0417,-0.0409,-0.036,-0.0333,-0.031,-0.0282,-0.0259,-0.0239,-0.0209,-0.0184,-0.0161,-0.0134,-0.0113,-0.0103,-0.0101,-0.0064,-0.0084,-0.0084,-0.0083,-0.005,-0.0047,-0.0045,-0.0079,-0.0079,-0.0079,0,0,-0.0478,-0.0447,-0.0441,-0.041,-0.0365,-0.0332,-0.0326,-0.0276,-0.0254,-0.0223,-0.0198,-0.017,-0.0139,-0.0112,-0.0096,-0.0086,-0.0068,-0.0086,-0.0086,-0.0055,-0.0053,-0.005,-0.0018,-0.0013,-0.0084,-0.0084,-0.0084,0,-0.0505,-0.0482,-0.0437,-0.042,-0.0397,-0.0344,-0.0332,-0.0299,-0.0247,-0.0225,-0.0221,-0.0157,-0.0137,-0.0098,-0.0095,-0.0086,-0.0067,-0.0088,-0.0056,-0.0053,-0.005,-0.0018,-0.0011,-0.0084,-0.0084,-0.0084,-0.0084,0,-0.0521,-0.0502,-0.0497,-0.0453,-0.0424,-0.0406,-0.0348,-0.0319,-0.0287,-0.0248,-0.0204,-0.0167,-0.0128,-0.0118,-0.0104,-0.0071,-0.0064,-0.0062,-0.0056,-0.0047,-0.0014,-0.0007,-0.0085,-0.0085,-0.0085,-0.0085,0,0,-0.0579,-0.0521,-0.0519,-0.0502,-0.0438,-0.0416,-0.0378,-0.0323,-0.0293,-0.0247,-0.0209,-0.0165,-0.0138,-0.0119,-0.0092,-0.0064,-0.0026,-0.0057,-0.0055,-0.0027,0.0044,0.008,0.0091,-0.002,-0.0019,-0.0018,0.006,0,-0.0605,-0.0593,-0.0546,-0.0525,-0.0512,-0.0443,-0.0412,-0.0355,-0.03,-0.025,-0.0198,-0.0157,-0.0139,-0.012,-0.0088,-0.0039,-0.0009,-0.0047,0.0033,0.0035,0.0065,0.01,0.0154,0.0231,0.0067,0.0068,0.0069,0,-0.0632,-0.0618,-0.0612,-0.0555,-0.0542,-0.0519,-0.0447,-0.041,-0.0323,-0.0279,-0.0219,-0.0171,-0.011,-0.0107,-0.0013,-0.0039,-0.0002,0.0033,0.0037,0.0079,0.0084,0.0196,0.025,0.0342,0.008,0.0079,0.0078,0,-0.0698,-0.0657,-0.0655,-0.0637,-0.0571,-0.0549,-0.0512,-0.0427,-0.0386,-0.0296,-0.0253,-0.0173,-0.0125,-0.0068,0.0016,-0.0,0.0115,0.0103,0.0171,0.0174,0.0242,0.0249,0.0395,0.0158,0.0158,0.0158,0.0158,0,-0.0741,-0.0734,-0.0687,-0.0685,-0.0675,-0.0607,-0.0574,-0.0516,-0.043,-0.037,-0.028,-0.0207,-0.0114,-0.0029,0.0024,0.0134,0.0126,0.0184,0.0203,0.024,0.0246,0.0344,0.0365,0.0161,0.016,0.016,0.0159,0,-0.0809,-0.0779,-0.0772,-0.0722,-0.0707,-0.0702,-0.0625,-0.0592,-0.0499,-0.0415,-0.0387,-0.0231,-0.01,-0.0005,0.0109,0.0158,0.0298,0.0276,0.0317,0.0339,0.0479,0.0496,0.0618,0.0628,0.0369,0.037,0.0371,0,-0.084,-0.0847,-0.0819,-0.0821,-0.0799,-0.0773,-0.075,-0.0651,-0.0596,-0.0414,-0.0375,-0.0216,-0.007,0.0123,0.0235,0.0354,0.0375,0.045,0.0428,0.0514,0.0546,0.0529,0.0525,0.0516,0.0518,0.052,0.0521,0,-0.0897,-0.0889,-0.0887,-0.0905,-0.089,-0.0858,-0.0806,-0.0769,-0.0626,-0.0515,-0.0328,-0.0189,0.0045,0.0257,0.0407,0.0458,0.0514,0.0491,0.0579,0.0679,0.0673,0.0682,0.0432,0.0538,0.0536,0.0535,0.0534,0.0534,-0.0935,-0.0957,-0.0964,-0.0976,-0.0964,-0.0929,-0.09,-0.0807,-0.0697,-0.0488,-0.0319,-0.0043,0.028,0.053,0.0579,0.0735,0.0652,0.078,0.0795,0.0772,0.0782,0.0567,0.0689,0.0688,0.0688,0.0687,0.0686,0,-0.0979,-0.1,-0.1028,-0.103,-0.1032,-0.1001,-0.0922,-0.0855,-0.072,-0.0467,-0.0245,0.0273,0.0552,0.0776,0.1021,0.1071,0.101,0.1076,0.1082,0.106,0.0895,0.0904,0.1079,0.1079,0.1079,0.1079,0.1079,0.1079,-0.1,-0.1047,-0.1066,-0.1089,-0.1082,-0.1049,-0.1,-0.0867,-0.068,-0.0282,0.0082,0.0362,0.0808,0.1259,0.1435,0.1383,0.1376,0.1354,0.1329,0.1252,0.1225,0.12,0.1216,0.1454,0.1455,0.1485,0.1486,0.1487]}],[{"header":{"parameterUnit":"m.s-1","parameterCategory":2,"la1":30.2991,"la2":30.254,"lo1":-89.0895,"lo2":-89.0444,"dy":0.0017,"dx":0.0017,"nx":28,"ny":28,"refTime":"2024-06-19T21:00:00:Z","depth":"2","parameterNumber":2,"parameterNumberName":"U-component_of_CURRENTS"},"data":[0,0,0,0,0,0,0,0,0,0,0,0,0,0,0,0,0,0,0,0,0,0,0,0,0,0,0,0,0,0,0,0,0,0,0,0,0,0,0,0,0,0,0,0,0,0,0,0,0,0,0,0,0,0,0,0,0,0,-0.1671,-0.1672,0,-0.1657,-0.1656,-0.1656,-0.1621,-0.162,-0.162,-0.162,-0.1542,-0.1541,-0.1539,0,0,0,0,0,0,0,0,0,0,0,0,0,-0.1619,-0.162,-0.1671,-0.1672,-0.1672,-0.1657,-0.1656,-0.1656,-0.1621,-0.162,-0.162,-0.162,-0.1543,-0.1541,-0.1539,0,0,0,0,0,0,0,0,0,0,0,0,0,-0.1623,-0.1621,-0.1671,-0.1656,-0.1655,-0.1657,-0.1656,-0.1656,-0.1621,-0.162,-0.162,-0.1619,-0.1544,-0.1541,-0.1539,-0.1532,0,0,-0.1531,-0.1529,0,0,0,0,0,0,0,0,-0.1623,-0.1624,-0.1658,-0.1657,-0.1656,-0.1644,-0.161,-0.1613,-0.1621,-0.1629,-0.162,-0.1619,-0.1574,-0.1569,-0.1562,-0.1528,-0.1525,-0.153,-0.1529,-0.1528,-0.1527,0,0,0,0,0,0,0,-0.1623,-0.1624,-0.1661,-0.1658,-0.1657,-0.1633,-0.1633,-0.161,-0.16,-0.1628,-0.1627,-0.1633,-0.1572,-0.1564,-0.1559,-0.1524,-0.153,-0.1528,-0.1526,-0.1525,-0.1482,-0.1482,0,0,0,0,0,0,-0.1637,-0.1625,-0.1662,-0.1661,-0.1643,-0.1635,-0.1635,-0.1645,-0.1601,-0.1596,-0.1633,-0.1631,-0.1569,-0.1563,-0.1557,-0.1555,-0.1528,-0.1525,-0.1524,-0.1481,-0.1482,-0.1482,0,0,0,0,0,0,-0.1636,-0.1641,-0.1662,-0.1645,-0.1647,-0.1637,-0.1648,-0.1645,-0.1639,-0.1606,-0.1599,-0.1632,-0.1568,-0.156,-0.154,-0.1551,-0.1524,-0.1521,-0.1481,-0.1481,-0.1482,-0.1546,0,0,0,0,0,0,-0.1634,-0.164,-0.1646,-0.1647,-0.1649,-0.1671,-0.1649,-0.1645,-0.1646,-0.1643,-0.1603,-0.1595,-0.1567,-0.1545,-0.1538,-0.1547,-0.1519,-0.148,-0.1481,-0.1482,-0.1543,-0.1549,-0.1553,0,0,0,0,0,-0.1633,-0.1645,-0.1646,-0.1651,-0.1659,-0.1672,-0.167,-0.1657,-0.1646,-0.1649,-0.1621,-0.1597,-0.1545,-0.1543,-0.1535,-0.1544,-0.148,-0.1481,-0.1482,-0.1541,-0.1548,-0.1553,0,0,0,0,0,0,-0.1622,-0.1643,-0.1644,-0.1662,-0.1671,-0.1668,-0.1668,-0.1664,-0.1644,-0.1636,-0.1601,-0.1592,-0.1579,-0.1552,-0.1551,-0.1533,-0.1509,-0.1508,-0.1557,-0.1562,-0.1567,-0.1564,-0.1517,0,0,0,0,0,-0.1626,-0.1641,-0.1657,-0.1669,-0.1677,-0.1674,-0.1675,-0.1671,-0.166,-0.1651,-0.1626,-0.1597,-0.1577,-0.1563,-0.1539,-0.1529,-0.1507,-0.1529,-0.1534,-0.1539,-0.153,-0.151,-0.1512,-0.1485,-0.1485,-0.1485,0,0,-0.1626,-0.1639,-0.1647,-0.1668,-0.167,-0.1685,-0.1672,-0.168,-0.1686,-0.1645,-0.1636,-0.1614,-0.1578,-0.1568,-0.1559,-0.1547,-0.1539,-0.154,-0.1544,-0.1533,-0.1511,-0.1514,-0.1516,-0.1486,-0.1486,-0.1486,0,0,-0.1636,-0.1646,-0.1663,-0.1675,-0.1691,-0.1692,-0.17,-0.1703,-0.1697,-0.1694,-0.1665,-0.1649,-0.1619,-0.1596,-0.158,-0.1597,-0.1567,-0.1594,-0.1615,-0.1596,-0.1598,-0.1599,-0.1596,-0.1597,-0.1596,-0.1596,-0.1596,0,-0.1636,-0.1658,-0.1668,-0.1689,-0.1697,-0.17,-0.1716,-0.1717,-0.1712,-0.1705,-0.1698,-0.1657,-0.1631,-0.1613,-0.162,-0.1608,-0.1597,-0.1598,-0.1603,-0.1604,-0.1604,-0.16,-0.16,-0.1599,-0.1599,-0.1598,-0.1598,0,-0.1659,-0.1677,-0.1688,-0.1714,-0.1725,-0.1739,-0.175,-0.1755,-0.1749,-0.1744,-0.173,-0.1699,-0.1669,-0.1669,-0.1648,-0.1641,-0.1634,-0.1615,-0.159,-0.1611,-0.1605,-0.1604,-0.1604,-0.1602,-0.1601,-0.1601,0,0,-0.1651,-0.1696,-0.1696,-0.1713,-0.1737,-0.1748,-0.1765,-0.1774,-0.1779,-0.1771,-0.1768,-0.174,-0.172,-0.17,-0.1677,-0.1664,-0.1669,-0.1645,-0.1642,-0.1646,-0.1641,-0.1653,-0.1652,-0.1654,-0.1653,-0.1653,-0.1645,0,-0.1661,-0.17,-0.1718,-0.1746,-0.1766,-0.1778,-0.1793,-0.1801,-0.1799,-0.1799,-0.1772,-0.1756,-0.1733,-0.1721,-0.1706,-0.1671,-0.1664,-0.1673,-0.1616,-0.1614,-0.1625,-0.165,-0.1458,-0.1435,-0.1643,-0.1643,-0.1643,0,-0.1671,-0.1695,-0.1727,-0.1765,-0.1773,-0.1789,-0.1806,-0.1819,-0.1822,-0.1821,-0.1804,-0.1782,-0.1757,-0.1738,-0.1691,-0.1699,-0.1674,-0.1653,-0.1652,-0.1633,-0.1622,-0.1443,-0.1425,-0.164,-0.164,-0.164,-0.1641,0,-0.1651,-0.1697,-0.1719,-0.1733,-0.1778,-0.1788,-0.1803,-0.1817,-0.1823,-0.1826,-0.1827,-0.1798,-0.1774,-0.1741,-0.1696,-0.1693,-0.1653,-0.1639,-0.1628,-0.1629,-0.1438,-0.1423,-0.1609,-0.1609,-0.1609,-0.1609,-0.1609,0,-0.165,-0.1666,-0.1713,-0.1725,-0.1744,-0.1779,-0.1795,-0.1808,-0.1826,-0.1833,-0.1826,-0.182,-0.1772,-0.1743,-0.1709,-0.1668,-0.1658,-0.1635,-0.1626,-0.1459,-0.1447,-0.1593,-0.1591,-0.1609,-0.1609,-0.1609,-0.1609,0,-0.1619,-0.1657,-0.1681,-0.1725,-0.1737,-0.1745,-0.1783,-0.1795,-0.1819,-0.1828,-0.1828,-0.1821,-0.1789,-0.1752,-0.1699,-0.1677,-0.1643,-0.163,-0.1453,-0.1426,-0.1631,-0.1633,-0.162,-0.162,-0.1621,-0.1621,-0.1621,0,-0.1606,-0.1617,-0.166,-0.1669,-0.1686,-0.1711,-0.173,-0.1775,-0.1791,-0.1828,-0.1826,-0.181,-0.1789,-0.1734,-0.1642,-0.1586,-0.1643,-0.1438,-0.14,-0.1638,-0.1631,-0.1632,-0.1633,-0.1169,-0.1166,-0.1163,-0.1161,0,-0.1559,-0.1573,-0.1585,-0.1613,-0.1634,-0.1663,-0.1695,-0.1711,-0.1768,-0.1783,-0.1807,-0.1797,-0.1724,-0.1569,-0.1503,-0.1446,-0.1435,-0.1384,-0.1638,-0.1224,-0.122,-0.1211,-0.1225,-0.1135,-0.1137,-0.1139,-0.1141,-0.1142,-0.1499,-0.1494,-0.1514,-0.153,-0.156,-0.1587,-0.1576,-0.1605,-0.162,-0.1571,-0.1687,-0.1583,-0.1546,-0.1318,-0.1262,-0.1189,-0.1297,-0.1235,-0.124,-0.1249,-0.1225,-0.1225,-0.1136,-0.1139,-0.1141,-0.1143,-0.1144,0,-0.1398,-0.1414,-0.1429,-0.1441,-0.1418,-0.1489,-0.1522,-0.1437,-0.139,-0.1381,-0.1353,-0.1154,-0.1086,-0.1057,-0.0893,-0.0914,-0.085,-0.0897,-0.0791,-0.0817,-0.0839,-0.0792,-0.059,-0.0589,-0.0588,-0.0587,0,0,-0.1346,-0.1314,-0.1326,-0.1269,-0.1289,-0.1208,-0.1202,-0.1085,-0.1014,-0.0856,-0.0794,-0.0893,-0.0966,-0.0745,-0.0723,-0.0629,-0.0703,-0.0583,-0.1014,-0.0907,-0.0929,-0.1013,-0.0968,0,0,0,0,0]},{"header":{"parameterUnit":"m.s-1","parameterCategory":2,"la1":30.2991,"la2":30.254,"lo1":-89.0895,"lo2":-89.0444,"dy":0.0017,"dx":0.0017,"nx":28,"ny":28,"refTime":"2024-06-19T21:00:00:Z","depth":"2","parameterNumber":3,"parameterNumberName":"V-component_of_CURRENTS"},"data":[0,0,0,0,0,0,0,0,0,0,0,0,0,0,0,0,0,0,0,0,0,0,0,0,0,0,0,0,0,0,0,0,0,0,0,0,0,0,0,0,0,0,0,0,0,0,0,0,0,0,0,0,0,0,0,0,0,0,-0.027,-0.0269,0,-0.0197,-0.0196,-0.0195,-0.0164,-0.0164,-0.0164,-0.0164,-0.0117,-0.0115,-0.0114,0,0,0,0,0,0,0,0,0,0,0,0,0,-0.0375,-0.0374,-0.027,-0.0269,-0.0268,-0.0197,-0.0196,-0.0195,-0.0164,-0.0164,-0.0164,-0.0164,-0.0117,-0.0115,-0.0114,0,0,0,0,0,0,0,0,0,0,0,0,0,-0.032,-0.0373,-0.027,-0.0243,-0.0239,-0.0197,-0.0196,-0.0195,-0.0164,-0.0164,-0.0164,-0.0164,-0.0117,-0.0116,-0.0114,-0.0103,0,0,-0.0108,-0.0107,0,0,0,0,0,0,0,0,-0.0324,-0.0317,-0.0248,-0.0244,-0.0241,-0.0188,-0.0216,-0.0165,-0.0164,-0.0195,-0.0164,-0.0164,-0.0142,-0.0138,-0.0126,-0.0101,-0.0099,-0.0108,-0.0107,-0.0106,-0.0105,0,0,0,0,0,0,0,-0.0327,-0.032,-0.0243,-0.0247,-0.0242,-0.0231,-0.0224,-0.0206,-0.0171,-0.0192,-0.0189,-0.0178,-0.014,-0.0128,-0.0125,-0.0098,-0.0108,-0.0106,-0.0105,-0.0104,-0.0053,-0.0053,0,0,0,0,0,0,-0.0333,-0.0323,-0.0245,-0.024,-0.0281,-0.0229,-0.0221,-0.0206,-0.0171,-0.0165,-0.0178,-0.0177,-0.0131,-0.0127,-0.0123,-0.0102,-0.0106,-0.0104,-0.0103,-0.0053,-0.0053,-0.0053,0,0,0,0,0,0,-0.0336,-0.0327,-0.0248,-0.0279,-0.0268,-0.0227,-0.0212,-0.0205,-0.0192,-0.016,-0.0154,-0.0172,-0.0131,-0.0126,-0.0102,-0.01,-0.0103,-0.0102,-0.0053,-0.0053,-0.0053,-0.0063,0,0,0,0,0,0,-0.0339,-0.0328,-0.0326,-0.0279,-0.0266,-0.0226,-0.0211,-0.0204,-0.0185,-0.0182,-0.0153,-0.0148,-0.0131,-0.0105,-0.0101,-0.0098,-0.01,-0.0054,-0.0053,-0.0053,-0.0063,-0.0063,-0.0063,0,0,0,0,0,-0.0343,-0.0342,-0.0327,-0.0317,-0.0263,-0.0226,-0.0219,-0.0191,-0.0185,-0.018,-0.0155,-0.0149,-0.0099,-0.0103,-0.0098,-0.0094,-0.0054,-0.0053,-0.0053,-0.0063,-0.0063,-0.0063,0,0,0,0,0,0,-0.0393,-0.0337,-0.0319,-0.0303,-0.0268,-0.022,-0.0216,-0.0193,-0.017,-0.0172,-0.0142,-0.0136,-0.0116,-0.0103,-0.0108,-0.0078,-0.0077,-0.0075,-0.0087,-0.0087,-0.0087,-0.0091,-0.0099,0,0,0,0,0,-0.0401,-0.0384,-0.033,-0.0319,-0.0303,-0.026,-0.0244,-0.0222,-0.019,-0.018,-0.0154,-0.0131,-0.0109,-0.0097,-0.0078,-0.0059,-0.0041,-0.0055,-0.0055,-0.0055,-0.0054,-0.0022,-0.0019,-0.0051,-0.0051,-0.0051,0,0,-0.0419,-0.0385,-0.0377,-0.0328,-0.0301,-0.0278,-0.0251,-0.0228,-0.0208,-0.0179,-0.0154,-0.0132,-0.0105,-0.0083,-0.0073,-0.0071,-0.0035,-0.0054,-0.0054,-0.0054,-0.0021,-0.0018,-0.0016,-0.005,-0.0051,-0.0051,0,0,-0.0446,-0.0415,-0.041,-0.0378,-0.0334,-0.0301,-0.0295,-0.0245,-0.0224,-0.0193,-0.0168,-0.014,-0.0109,-0.0082,-0.0066,-0.0055,-0.0038,-0.0055,-0.0055,-0.0024,-0.0021,-0.0019,0.0012,0.0018,-0.0053,-0.0053,-0.0053,0,-0.0473,-0.0449,-0.0405,-0.0388,-0.0365,-0.0312,-0.03,-0.0267,-0.0216,-0.0194,-0.019,-0.0127,-0.0106,-0.0067,-0.0064,-0.0055,-0.0037,-0.0058,-0.0024,-0.0021,-0.0018,0.0013,0.0019,-0.0053,-0.0053,-0.0053,-0.0053,0,-0.0489,-0.0469,-0.0465,-0.042,-0.0392,-0.0373,-0.0316,-0.0287,-0.0255,-0.0217,-0.0173,-0.0136,-0.0097,-0.0086,-0.0072,-0.0039,-0.0032,-0.003,-0.0025,-0.0016,0.0016,0.0023,-0.0054,-0.0054,-0.0054,-0.0054,0,0,-0.0547,-0.0489,-0.0487,-0.0469,-0.0406,-0.0383,-0.0345,-0.029,-0.026,-0.0214,-0.0176,-0.0132,-0.0106,-0.0086,-0.006,-0.0031,0.0006,-0.0025,-0.0023,0.0004,0.0075,0.0109,0.0119,0.0012,0.0013,0.0014,0.009,0,-0.0573,-0.056,-0.0513,-0.0492,-0.0478,-0.041,-0.0378,-0.0321,-0.0266,-0.0217,-0.0164,-0.0124,-0.0106,-0.0088,-0.0055,-0.0006,0.0023,-0.0014,0.0064,0.0066,0.0094,0.0128,0.0106,0.0174,0.0097,0.0098,0.0099,0,-0.0599,-0.0585,-0.0578,-0.0521,-0.0508,-0.0485,-0.0413,-0.0376,-0.0289,-0.0246,-0.0186,-0.0138,-0.0077,-0.0075,0.0019,-0.0007,0.0029,0.0064,0.0068,0.0107,0.0112,0.0152,0.0189,0.011,0.0109,0.0108,0.0108,0,-0.0665,-0.0623,-0.0622,-0.0603,-0.0537,-0.0516,-0.0478,-0.0393,-0.0353,-0.0263,-0.022,-0.014,-0.0094,-0.0037,0.0046,0.0031,0.0144,0.0133,0.0199,0.0201,0.0203,0.0204,0.0188,0.0188,0.0188,0.0188,0.0187,0,-0.0708,-0.0701,-0.0654,-0.0652,-0.0642,-0.0574,-0.0541,-0.0483,-0.0398,-0.0338,-0.0248,-0.0176,-0.0083,0.0001,0.0053,0.0161,0.0155,0.0211,0.0229,0.0199,0.02,0.0156,0.0151,0.019,0.019,0.0189,0.0189,0,-0.0776,-0.0745,-0.0738,-0.0688,-0.0674,-0.067,-0.0593,-0.056,-0.0468,-0.0385,-0.0356,-0.0201,-0.0072,0.0023,0.0136,0.0184,0.0269,0.03,0.0264,0.0276,0.03,0.0294,0.0385,0.0387,0.0389,0.039,0.0392,0,-0.0807,-0.0814,-0.0786,-0.0788,-0.0766,-0.0741,-0.0719,-0.0619,-0.0565,-0.0385,-0.0347,-0.0189,-0.0046,0.0144,0.024,0.0353,0.033,0.0388,0.0358,0.0315,0.0323,0.0314,0.0306,0.0354,0.0355,0.0355,0.0356,0,-0.0864,-0.0856,-0.0854,-0.0873,-0.0858,-0.0827,-0.0775,-0.0739,-0.0596,-0.0488,-0.0304,-0.0168,0.0048,0.0209,0.0351,0.0396,0.037,0.0406,0.0384,0.0308,0.0292,0.0298,0.0289,0.0361,0.0361,0.036,0.036,0.036,-0.0903,-0.0925,-0.0932,-0.0944,-0.0933,-0.0899,-0.087,-0.0774,-0.0665,-0.0469,-0.0313,-0.009,0.0091,0.0308,0.04,0.0447,0.0449,0.0448,0.0443,0.0438,0.0421,0.041,0.0498,0.0498,0.0498,0.0498,0.0498,0,-0.094,-0.0968,-0.0996,-0.0999,-0.0993,-0.097,-0.0893,-0.0817,-0.0679,-0.0485,-0.0283,-0.0044,0.0157,0.0301,0.0406,0.0495,0.0451,0.048,0.0416,0.0411,0.0407,0.0385,0.0454,0.0454,0.0454,0.0454,0,0,-0.0959,-0.1003,-0.1022,-0.1041,-0.1042,-0.0997,-0.0949,-0.0809,-0.0659,-0.0439,-0.0271,-0.0046,0.0173,0.0242,0.0354,0.0403,0.0363,0.0382,0.0411,0.0316,0.031,0.0387,0.035,0,0,0,0,0]}],[{"header":{"parameterUnit":"m.s-1","parameterCategory":2,"la1":30.2991,"la2":30.254,"lo1":-89.0895,"lo2":-89.0444,"dy":0.0017,"dx":0.0017,"nx":28,"ny":28,"refTime":"2024-06-19T21:00:00:Z","depth":"4","parameterNumber":2,"parameterNumberName":"U-component_of_CURRENTS"},"data":[0,0,0,0,0,0,0,0,0,0,0,0,0,0,0,0,0,0,0,0,0,0,0,0,0,0,0,0,0,0,0,0,0,0,0,0,0,0,0,0,0,0,0,0,0,0,0,0,0,0,0,0,0,0,0,0,0,0,-0.0869,-0.0869,0,-0.0879,-0.0879,-0.0879,-0.0889,-0.0889,-0.0889,-0.089,-0.0894,-0.0894,-0.0894,0,0,0,0,0,0,0,0,0,0,0,0,0,-0.0832,-0.0832,-0.0869,-0.0869,-0.0869,-0.0879,-0.0879,-0.0879,-0.0889,-0.0889,-0.0889,-0.089,-0.0894,-0.0894,-0.0894,0,0,0,0,0,0,0,0,0,0,0,0,0,-0.0843,-0.0832,-0.0869,-0.0877,-0.0878,-0.0879,-0.0879,-0.0879,-0.0888,-0.0889,-0.0889,-0.089,-0.0894,-0.0894,-0.0894,-0.0882,0,0,-0.0893,-0.0893,0,0,0,0,0,0,0,0,-0.0843,-0.0844,-0.0875,-0.0876,-0.0878,-0.0885,-0.0867,-0.088,-0.0888,-0.0882,-0.089,-0.089,-0.0891,-0.0891,-0.0889,-0.0882,-0.0883,-0.0893,-0.0893,-0.0893,-0.0892,0,0,0,0,0,0,0,-0.0842,-0.0844,-0.0871,-0.0876,-0.0877,-0.0871,-0.0873,-0.087,-0.0882,-0.0883,-0.0884,-0.0888,-0.0892,-0.089,-0.089,-0.0883,-0.0893,-0.0893,-0.0892,-0.0892,-0.0904,-0.0905,0,0,0,0,0,0,-0.0846,-0.0843,-0.087,-0.0871,-0.0863,-0.0872,-0.0874,-0.088,-0.0883,-0.0884,-0.0888,-0.0889,-0.089,-0.089,-0.089,-0.0925,-0.0893,-0.0892,-0.0892,-0.0904,-0.0904,-0.0905,0,0,0,0,0,0,-0.0845,-0.0848,-0.087,-0.0859,-0.0862,-0.0872,-0.0879,-0.088,-0.0897,-0.0887,-0.0888,-0.0906,-0.089,-0.089,-0.0902,-0.0923,-0.0892,-0.0892,-0.0903,-0.0904,-0.0905,-0.0964,0,0,0,0,0,0,-0.0844,-0.0848,-0.0859,-0.0859,-0.0862,-0.0886,-0.0879,-0.088,-0.0899,-0.0901,-0.0902,-0.0902,-0.0891,-0.0902,-0.0901,-0.0922,-0.0892,-0.0903,-0.0903,-0.0904,-0.0962,-0.0967,-0.0971,0,0,0,0,0,-0.0842,-0.0856,-0.086,-0.0864,-0.0876,-0.0887,-0.0888,-0.0895,-0.09,-0.0911,-0.0911,-0.0903,-0.0907,-0.0903,-0.0901,-0.0923,-0.0902,-0.0903,-0.0904,-0.0959,-0.0966,-0.0971,0,0,0,0,0,0,-0.0847,-0.0858,-0.0863,-0.088,-0.089,-0.089,-0.0902,-0.0907,-0.0916,-0.0921,-0.091,-0.091,-0.0928,-0.0914,-0.0909,-0.0927,-0.0903,-0.0904,-0.0945,-0.0951,-0.0956,-0.0953,-0.0891,0,0,0,0,0,-0.0853,-0.0867,-0.0875,-0.089,-0.0898,-0.0904,-0.0912,-0.0918,-0.0923,-0.0928,-0.0931,-0.0929,-0.0927,-0.0932,-0.0927,-0.0938,-0.0918,-0.095,-0.0955,-0.0959,-0.0955,-0.0939,-0.0942,-0.0908,-0.0908,-0.0908,0,0,-0.086,-0.0867,-0.0876,-0.0893,-0.09,-0.0917,-0.091,-0.093,-0.0946,-0.0926,-0.0954,-0.0949,-0.0933,-0.0947,-0.0953,-0.0942,-0.0961,-0.0961,-0.0965,-0.0957,-0.094,-0.0943,-0.0946,-0.0909,-0.0909,-0.0909,0,0,-0.0874,-0.0887,-0.0903,-0.0915,-0.0934,-0.0938,-0.0949,-0.0963,-0.0974,-0.0995,-0.0983,-0.0988,-0.0995,-0.0984,-0.0979,-0.1005,-0.0987,-0.1012,-0.1037,-0.1022,-0.1025,-0.1027,-0.1019,-0.102,-0.1015,-0.1015,-0.1015,0,-0.0883,-0.0902,-0.0909,-0.0928,-0.0942,-0.0951,-0.0973,-0.0984,-0.1001,-0.1009,-0.1013,-0.1016,-0.1009,-0.101,-0.1022,-0.1017,-0.1009,-0.102,-0.1029,-0.103,-0.1031,-0.1022,-0.1023,-0.1018,-0.1018,-0.1018,-0.1017,0,-0.0902,-0.0927,-0.0938,-0.0964,-0.0981,-0.1001,-0.1018,-0.1039,-0.1055,-0.106,-0.1077,-0.1065,-0.1062,-0.1067,-0.1056,-0.1062,-0.1055,-0.1038,-0.1016,-0.1038,-0.1028,-0.1027,-0.1023,-0.1022,-0.1021,-0.102,0,0,-0.0892,-0.0942,-0.0946,-0.0969,-0.1002,-0.1016,-0.1049,-0.1071,-0.1091,-0.1107,-0.1124,-0.1123,-0.1117,-0.1108,-0.1096,-0.1087,-0.1096,-0.1074,-0.1072,-0.107,-0.1073,-0.1012,-0.1004,-0.1086,-0.1086,-0.1086,-0.1068,0,-0.0904,-0.0945,-0.0967,-0.1011,-0.1034,-0.1059,-0.1088,-0.1111,-0.1128,-0.1149,-0.1138,-0.1148,-0.1132,-0.1138,-0.1127,-0.11,-0.1094,-0.1102,-0.1048,-0.1046,-0.0991,-0.1001,-0.1086,-0.1067,-0.1067,-0.1067,-0.1067,0,-0.0905,-0.0936,-0.0981,-0.1037,-0.105,-0.108,-0.1122,-0.1149,-0.1174,-0.1188,-0.1192,-0.1186,-0.1177,-0.1162,-0.1125,-0.1135,-0.1111,-0.1089,-0.1087,-0.1003,-0.0981,-0.1035,-0.1064,-0.1065,-0.1065,-0.1065,-0.1065,0,-0.0878,-0.0941,-0.0979,-0.0998,-0.1063,-0.1092,-0.1124,-0.116,-0.118,-0.121,-0.1223,-0.1213,-0.1204,-0.1176,-0.1132,-0.1135,-0.1088,-0.108,-0.1001,-0.0997,-0.1033,-0.103,-0.1052,-0.1053,-0.1053,-0.1053,-0.1053,0,-0.0866,-0.0898,-0.0975,-0.0994,-0.104,-0.1091,-0.1136,-0.1164,-0.1204,-0.1217,-0.1238,-0.123,-0.1207,-0.1177,-0.1143,-0.1063,-0.1092,-0.1001,-0.0983,-0.106,-0.1061,-0.1033,-0.1031,-0.1052,-0.1052,-0.1052,-0.1052,0,-0.0821,-0.0877,-0.0924,-0.1003,-0.1028,-0.1059,-0.1135,-0.1159,-0.1209,-0.1226,-0.1236,-0.1238,-0.1194,-0.1165,-0.111,-0.106,-0.1003,-0.0969,-0.1061,-0.105,-0.0925,-0.0926,-0.088,-0.0878,-0.0876,-0.0874,-0.0872,0,-0.0799,-0.0821,-0.091,-0.0936,-0.0974,-0.1035,-0.107,-0.1145,-0.1165,-0.1213,-0.1203,-0.119,-0.1178,-0.1049,-0.1031,-0.0962,-0.0943,-0.0921,-0.0915,-0.0917,-0.0905,-0.0909,-0.0913,-0.0869,-0.0869,-0.0868,-0.0868,0,-0.0743,-0.0784,-0.0816,-0.0874,-0.0923,-0.0973,-0.1028,-0.1039,-0.1114,-0.1176,-0.1139,-0.1105,-0.1052,-0.0992,-0.0944,-0.0895,-0.094,-0.0899,-0.0903,-0.0897,-0.0903,-0.0894,-0.09,-0.086,-0.0861,-0.0862,-0.0862,0,-0.0689,-0.0698,-0.0746,-0.0784,-0.0844,-0.0873,-0.0929,-0.0956,-0.099,-0.1058,-0.1038,-0.1026,-0.1042,-0.0956,-0.0911,-0.0859,-0.084,-0.0813,-0.0821,-0.0829,-0.0816,-0.0816,-0.0726,0,0,0,0,0,-0.0622,-0.0618,-0.065,-0.0688,-0.0745,-0.0775,-0.0873,-0.0934,-0.1018,-0.097,-0.1006,-0.0957,-0.0891,-0.0879,-0.0806,-0.0867,-0.0834,-0.0781,-0.0806,-0.0821,-0.0829,-0.0816,0,0,0,0,0,0,-0.0578,-0.0596,-0.0611,-0.059,-0.059,-0.0646,-0.0703,-0.0774,-0.0763,-0.0849,-0.0812,-0.0879,-0.0817,-0.0887,-0.0768,-0.0766,-0.0763,-0.0785,-0.0783,-0.0816,-0.0823,-0.083,-0.082,0,0,0,0,0]},{"header":{"parameterUnit":"m.s-1","parameterCategory":2,"la1":30.2991,"la2":30.254,"lo1":-89.0895,"lo2":-89.0444,"dy":0.0017,"dx":0.0017,"nx":28,"ny":28,"refTime":"2024-06-19T21:00:00:Z","depth":"4","parameterNumber":3,"parameterNumberName":"V-component_of_CURRENTS"},"data":[0,0,0,0,0,0,0,0,0,0,0,0,0,0,0,0,0,0,0,0,0,0,0,0,0,0,0,0,0,0,0,0,0,0,0,0,0,0,0,0,0,0,0,0,0,0,0,0,0,0,0,0,0,0,0,0,0,0,-0.0062,-0.0061,0,-0.001,-0.001,-0.0009,0.001,0.001,0.001,0.001,0.0033,0.0034,0.0034,0,0,0,0,0,0,0,0,0,0,0,0,0,-0.0139,-0.0138,-0.0062,-0.0061,-0.0061,-0.001,-0.001,-0.0009,0.001,0.001,0.001,0.001,0.0033,0.0034,0.0035,0,0,0,0,0,0,0,0,0,0,0,0,0,-0.01,-0.0138,-0.0062,-0.0044,-0.0042,-0.001,-0.001,-0.0009,0.001,0.001,0.001,0.001,0.0033,0.0034,0.0035,0.0042,0,0,0.0038,0.0038,0,0,0,0,0,0,0,0,-0.0102,-0.0097,-0.0047,-0.0045,-0.0043,-0.0005,-0.0028,0.0007,0.001,-0.0011,0.001,0.001,0.0019,0.0021,0.0029,0.0043,0.0044,0.0038,0.0038,0.0039,0.0039,0,0,0,0,0,0,0,-0.0105,-0.0099,-0.0043,-0.0047,-0.0044,-0.0036,-0.0031,-0.0021,0.0002,-0.0009,-0.0008,0.0001,0.002,0.0028,0.003,0.0044,0.0038,0.0039,0.0039,0.004,0.0077,0.0078,0,0,0,0,0,0,-0.0108,-0.0102,-0.0045,-0.0041,-0.0071,-0.0035,-0.0029,-0.0018,0.0002,0.0006,0.0001,0.0001,0.0026,0.0028,0.003,0.005,0.0039,0.004,0.004,0.0077,0.0077,0.0078,0,0,0,0,0,0,-0.011,-0.0104,-0.0047,-0.007,-0.0062,-0.0033,-0.0022,-0.0017,-0.001,0.001,0.0013,0.0003,0.0026,0.0029,0.0045,0.0051,0.004,0.0041,0.0076,0.0077,0.0077,0.0083,0,0,0,0,0,0,-0.0113,-0.0105,-0.0105,-0.007,-0.006,-0.0032,-0.0021,-0.0016,-0.0004,-0.0003,0.0014,0.0016,0.0027,0.0043,0.0046,0.0052,0.0042,0.0076,0.0077,0.0077,0.0082,0.0083,0.0084,0,0,0,0,0,-0.0116,-0.0115,-0.0105,-0.0099,-0.006,-0.0032,-0.0027,-0.0008,-0.0004,-0.0002,0.0016,0.0016,0.005,0.0045,0.0047,0.0054,0.0075,0.0076,0.0077,0.0081,0.0083,0.0084,0,0,0,0,0,0,-0.0152,-0.0112,-0.0101,-0.0089,-0.0064,-0.0028,-0.0027,-0.001,0.0006,0.0003,0.0022,0.0026,0.0041,0.0047,0.0041,0.0067,0.0062,0.0063,0.0064,0.0066,0.0067,0.0062,0.0043,0,0,0,0,0,-0.0158,-0.0148,-0.0108,-0.0101,-0.009,-0.0059,-0.0048,-0.0032,-0.001,-0.0003,0.0014,0.003,0.0047,0.0056,0.0068,0.0083,0.0092,0.0088,0.009,0.0091,0.0088,0.0117,0.0121,0.0081,0.0081,0.0081,0,0,-0.0172,-0.0148,-0.0143,-0.0109,-0.009,-0.0072,-0.0053,-0.0038,-0.0021,-0.0004,0.0016,0.0031,0.0051,0.0071,0.0077,0.0077,0.0107,0.0092,0.0093,0.009,0.0118,0.0122,0.0126,0.0081,0.0081,0.0081,0,0,-0.0191,-0.0171,-0.0168,-0.0146,-0.0116,-0.0091,-0.0087,-0.005,-0.0034,-0.0011,0.0009,0.0032,0.0052,0.0078,0.0091,0.0106,0.0111,0.0105,0.011,0.0138,0.0142,0.0145,0.0161,0.0166,0.0108,0.0108,0.0108,0,-0.021,-0.0194,-0.0165,-0.0153,-0.0137,-0.0099,-0.009,-0.0064,-0.0026,-0.0009,-0.0009,0.0043,0.0058,0.0097,0.0104,0.011,0.0119,0.0103,0.014,0.0144,0.0147,0.0163,0.0168,0.0109,0.0109,0.0109,0.0109,0,-0.022,-0.0209,-0.0206,-0.0175,-0.0155,-0.0142,-0.0097,-0.0075,-0.0052,-0.0022,0.0015,0.0046,0.0076,0.0089,0.01,0.0135,0.0132,0.0136,0.0135,0.0151,0.0167,0.0172,0.0109,0.0109,0.0109,0.0109,0,0,-0.0256,-0.0221,-0.022,-0.0211,-0.0165,-0.015,-0.0117,-0.0073,-0.0051,-0.0012,0.0019,0.0062,0.0079,0.0096,0.012,0.0149,0.0182,0.0149,0.0151,0.0164,0.0234,0.0218,0.0222,0.0191,0.0192,0.0193,0.0235,0,-0.0273,-0.0268,-0.0237,-0.0224,-0.0216,-0.0167,-0.0141,-0.0097,-0.0055,-0.0015,0.0035,0.0066,0.0083,0.0096,0.013,0.0169,0.0195,0.0169,0.0218,0.0219,0.0202,0.0227,0.0196,0.0239,0.024,0.0241,0.0242,0,-0.0288,-0.0282,-0.0283,-0.0249,-0.0241,-0.0227,-0.0177,-0.0147,-0.0075,-0.0043,0.0009,0.0049,0.0106,0.011,0.0189,0.017,0.0197,0.0227,0.0229,0.0214,0.0213,0.0221,0.0251,0.025,0.025,0.0249,0.0249,0,-0.0332,-0.0309,-0.0315,-0.0303,-0.0262,-0.0252,-0.0228,-0.0164,-0.0134,-0.0061,-0.0031,0.0043,0.0079,0.0132,0.0197,0.0191,0.0277,0.0277,0.029,0.0288,0.0287,0.0283,0.0324,0.0324,0.0324,0.0324,0.0323,0,-0.0355,-0.0357,-0.0341,-0.0343,-0.0347,-0.0301,-0.0286,-0.0244,-0.018,-0.0138,-0.0058,-0.0004,0.0086,0.0152,0.0199,0.0263,0.0279,0.0294,0.0302,0.0288,0.0284,0.0291,0.0286,0.0325,0.0325,0.0324,0.0324,0,-0.0394,-0.0384,-0.0391,-0.0372,-0.037,-0.0376,-0.0336,-0.0315,-0.0248,-0.0189,-0.0166,-0.004,0.0053,0.0138,0.0233,0.0263,0.0324,0.0338,0.0314,0.0319,0.0314,0.0309,0.0356,0.0356,0.0356,0.0356,0.0356,0,-0.041,-0.0421,-0.0431,-0.0445,-0.044,-0.0438,-0.0432,-0.0366,-0.0331,-0.0203,-0.0174,-0.0061,0.0024,0.0153,0.0235,0.0323,0.033,0.0353,0.0337,0.0315,0.0319,0.0315,0.031,0.0355,0.0355,0.0355,0.0355,0,-0.0438,-0.045,-0.046,-0.0501,-0.051,-0.0505,-0.0485,-0.0462,-0.0365,-0.0306,-0.017,-0.0067,0.0043,0.0153,0.0222,0.0285,0.0336,0.0352,0.0352,0.0337,0.0315,0.0318,0.0314,0.0355,0.0355,0.0355,0.0355,0,-0.046,-0.0483,-0.051,-0.0539,-0.0561,-0.0556,-0.0538,-0.0472,-0.0422,-0.0271,-0.0227,-0.0076,0.0022,0.0134,0.0202,0.026,0.0269,0.0274,0.0278,0.028,0.0243,0.0203,0.0221,0,0,0,0,0,-0.0472,-0.0501,-0.054,-0.0565,-0.059,-0.0594,-0.056,-0.0524,-0.0432,-0.0348,-0.0281,-0.0169,-0.0013,0.0072,0.0124,0.0171,0.0253,0.0231,0.0254,0.0353,0.0353,0.0322,0,0,0,0,0,0,-0.0479,-0.0521,-0.0544,-0.0581,-0.0601,-0.0611,-0.0589,-0.0527,-0.0465,-0.0363,-0.0279,-0.0181,-0.004,-0.0054,0.0116,0.0141,0.0158,0.0319,0.032,0.0352,0.0353,0.0353,0.0321,0,0,0,0,0]}]]